Previsão horária em Julianka

Hoje, 19 Junho, Sábado

Tempo Temperatura Precipitação Vento Pressão Humidade
00:00 +18°C° 0 mm 2 m/s 752 mmHg 85%
01:00 +18°C° 0 mm 2 m/s 752 mmHg 86%
02:00 +17°C° 0 mm 2 m/s 752 mmHg 87%
03:00 +17°C° 0 mm 2 m/s 752 mmHg 88%
04:00 +17°C° 0 mm 2 m/s 752 mmHg 89%
05:00 +17°C° 0 mm 2 m/s 752 mmHg 90%
06:00 +19°C° 0 mm 2 m/s 752 mmHg 83%
07:00 +21°C° 0 mm 2 m/s 752 mmHg 76%
08:00 +24°C° 0 mm 2 m/s 752 mmHg 69%
09:00 +26°C° 0 mm 3 m/s 752 mmHg 64%
10:00 +27°C° 0 mm 3 m/s 752 mmHg 60%
11:00 +28°C° 0 mm 4 m/s 752 mmHg 55%
12:00 +29°C° 0 mm 4 m/s 751 mmHg 53%
13:00 +30°C° 0 mm 3 m/s 751 mmHg 51%
14:00 +30°C° 0 mm 3 m/s 751 mmHg 48%
15:00 +30°C° 0 mm 3 m/s 751 mmHg 52%
16:00 +29°C° 0 mm 3 m/s 751 mmHg 56%
17:00 +28°C° 0 mm 3 m/s 750 mmHg 59%
18:00 +27°C° 0 mm 3 m/s 750 mmHg 64%
19:00 +26°C° 0 mm 3 m/s 750 mmHg 69%
20:00 +24°C° 0 mm 2 m/s 750 mmHg 74%
21:00 +22°C° 0 mm 3 m/s 750 mmHg 77%
22:00 +21°C° 0 mm 3 m/s 750 mmHg 81%
23:00 +20°C° 0 mm 3 m/s 750 mmHg 84%

Amanhã, 20 Junho, Domingo

Tempo Temperatura Precipitação Vento Pressão Humidade
00:00 +19°C° 0 mm 2 m/s 750 mmHg 87%
01:00 +19°C° 0 mm 2 m/s 750 mmHg 89%
02:00 +18°C° 0 mm 2 m/s 750 mmHg 91%
03:00 +18°C° 0 mm 2 m/s 750 mmHg 92%
04:00 +18°C° 0 mm 2 m/s 750 mmHg 92%
05:00 +18°C° 0 mm 2 m/s 750 mmHg 93%
06:00 +20°C° 0 mm 2 m/s 750 mmHg 86%
07:00 +22°C° 0 mm 3 m/s 750 mmHg 79%
08:00 +25°C° 0 mm 3 m/s 750 mmHg 72%
09:00 +26°C° 0 mm 3 m/s 750 mmHg 68%
10:00 +27°C° 0 mm 4 m/s 750 mmHg 64%
11:00 +28°C° 0 mm 4 m/s 749 mmHg 59%
12:00 +29°C° 0.5 mm 4 m/s 749 mmHg 60%
13:00 +29°C° 0.5 mm 4 m/s 749 mmHg 62%
14:00 +29°C° 0.5 mm 4 m/s 748 mmHg 63%
15:00 +29°C° 0.2 mm 4 m/s 748 mmHg 62%
16:00 +29°C° 0.2 mm 3 m/s 748 mmHg 62%
17:00 +29°C° 0.2 mm 3 m/s 748 mmHg 61%
18:00 +28°C° 0.1 mm 3 m/s 747 mmHg 67%
19:00 +26°C° 0.1 mm 3 m/s 747 mmHg 72%
20:00 +25°C° 0.1 mm 2 m/s 747 mmHg 78%
21:00 +24°C° 0 mm 3 m/s 747 mmHg 81%
22:00 +22°C° 0 mm 3 m/s 747 mmHg 85%
23:00 +21°C° 0 mm 3 m/s 747 mmHg 89%

Depois de amanhã, 21 Junho, Segunda-feira

Tempo Temperatura Precipitação Vento Pressão Humidade
00:00 +20°C° 0 mm 3 m/s 747 mmHg 90%
01:00 +20°C° 0 mm 3 m/s 747 mmHg 91%
02:00 +19°C° 0 mm 3 m/s 747 mmHg 92%
03:00 +19°C° 0 mm 3 m/s 747 mmHg 92%
04:00 +19°C° 0 mm 2 m/s 747 mmHg 93%
05:00 +18°C° 0 mm 2 m/s 747 mmHg 93%
06:00 +20°C° 0 mm 3 m/s 746 mmHg 87%
07:00 +21°C° 0 mm 4 m/s 746 mmHg 80%
08:00 +23°C° 0 mm 4 m/s 746 mmHg 73%
09:00 +25°C° 0 mm 5 m/s 746 mmHg 68%
10:00 +26°C° 0 mm 5 m/s 746 mmHg 63%
11:00 +28°C° 0 mm 5 m/s 746 mmHg 58%
12:00 +28°C° 0.1 mm 5 m/s 746 mmHg 58%
13:00 +28°C° 0.1 mm 4 m/s 745 mmHg 59%
14:00 +28°C° 0.1 mm 4 m/s 745 mmHg 60%
15:00 +28°C° 0.1 mm 4 m/s 745 mmHg 59%
16:00 +28°C° 0.1 mm 4 m/s 745 mmHg 59%
17:00 +28°C° 0.1 mm 3 m/s 745 mmHg 58%
18:00 +27°C° 0 mm 3 m/s 745 mmHg 65%
19:00 +26°C° 0 mm 3 m/s 744 mmHg 71%
20:00 +25°C° 0 mm 2 m/s 744 mmHg 78%
21:00 +24°C° 0 mm 2 m/s 744 mmHg 82%
22:00 +23°C° 0 mm 2 m/s 745 mmHg 86%
23:00 +21°C° 0 mm 2 m/s 745 mmHg 90%

22 Junho, Terça-feira

Tempo Temperatura Precipitação Vento Pressão Humidade
00:00 +20°C° 0 mm 2 m/s 745 mmHg 91%
01:00 +20°C° 0 mm 2 m/s 745 mmHg 92%
02:00 +19°C° 0 mm 2 m/s 745 mmHg 94%
03:00 +19°C° 0 mm 2 m/s 745 mmHg 94%
04:00 +19°C° 0 mm 2 m/s 745 mmHg 94%
05:00 +19°C° 0 mm 2 m/s 745 mmHg 94%
06:00 +21°C° 0 mm 3 m/s 745 mmHg 87%
07:00 +24°C° 0 mm 3 m/s 745 mmHg 80%
08:00 +25°C° 0 mm 4 m/s 746 mmHg 73%
09:00 +27°C° 0 mm 4 m/s 746 mmHg 67%
10:00 +28°C° 0 mm 4 m/s 746 mmHg 61%
11:00 +29°C° 0 mm 4 m/s 746 mmHg 56%
12:00 +29°C° 0 mm 4 m/s 746 mmHg 54%
13:00 +30°C° 0 mm 4 m/s 746 mmHg 53%
14:00 +30°C° 0 mm 4 m/s 746 mmHg 52%
15:00 +29°C° 0.1 mm 3 m/s 746 mmHg 56%
16:00 +29°C° 0.1 mm 3 m/s 747 mmHg 60%
17:00 +28°C° 0.1 mm 3 m/s 747 mmHg 64%
18:00 +27°C° 0 mm 2 m/s 747 mmHg 67%
19:00 +27°C° 0 mm 1 m/s 747 mmHg 70%
20:00 +24°C° 0 mm 0 m/s 747 mmHg 73%
21:00 +25°C° 0.1 mm 1 m/s 747 mmHg 76%
22:00 +24°C° 0.1 mm 2 m/s 747 mmHg 78%
23:00 +23°C° 0.1 mm 2 m/s 747 mmHg 81%

23 Junho, Quarta-feira

Tempo Temperatura Precipitação Vento Pressão Humidade
00:00 +21°C° 0.2 mm 2 m/s 747 mmHg 85%
01:00 +20°C° 0.2 mm 2 m/s 747 mmHg 90%
02:00 +19°C° 0.2 mm 2 m/s 747 mmHg 94%
03:00 +19°C° 0 mm 2 m/s 747 mmHg 93%
04:00 +19°C° 0 mm 2 m/s 748 mmHg 93%
05:00 +19°C° 0 mm 2 m/s 748 mmHg 92%
06:00 +20°C° 0 mm 2 m/s 748 mmHg 86%
07:00 +23°C° 0 mm 2 m/s 748 mmHg 80%
08:00 +25°C° 0 mm 2 m/s 748 mmHg 75%
09:00 +27°C° 0 mm 2 m/s 748 mmHg 69%
10:00 +28°C° 0 mm 2 m/s 748 mmHg 63%
11:00 +30°C° 0 mm 2 m/s 748 mmHg 57%
12:00 +31°C° 0 mm 3 m/s 748 mmHg 54%
13:00 +31°C° 0 mm 3 m/s 748 mmHg 51%
14:00 +33°C° 0 mm 3 m/s 748 mmHg 48%
15:00 +33°C° 0 mm 3 m/s 748 mmHg 50%
16:00 +31°C° 0 mm 3 m/s 748 mmHg 52%
17:00 +31°C° 0 mm 3 m/s 748 mmHg 54%
18:00 +30°C° 0.1 mm 2 m/s 748 mmHg 60%
19:00 +28°C° 0.1 mm 2 m/s 748 mmHg 66%
20:00 +27°C° 0.1 mm 2 m/s 748 mmHg 71%
21:00 +26°C° 0 mm 2 m/s 748 mmHg 74%
22:00 +25°C° 0 mm 2 m/s 748 mmHg 77%
23:00 +24°C° 0 mm 2 m/s 748 mmHg 80%

24 Junho, Quinta-feira

Tempo Temperatura Precipitação Vento Pressão Humidade
00:00 +23°C° 0.2 mm 2 m/s 748 mmHg 83%
01:00 +23°C° 0.2 mm 2 m/s 748 mmHg 86%
02:00 +21°C° 0.2 mm 2 m/s 748 mmHg 89%
03:00 +21°C° 0.1 mm 2 m/s 748 mmHg 89%
04:00 +21°C° 0.1 mm 2 m/s 748 mmHg 90%
05:00 +21°C° 0.1 mm 2 m/s 748 mmHg 90%
06:00 +24°C° 0 mm 2 m/s 748 mmHg 84%
07:00 +25°C° 0 mm 2 m/s 748 mmHg 79%
08:00 +27°C° 0 mm 2 m/s 748 mmHg 74%
09:00 +29°C° 0 mm 3 m/s 748 mmHg 67%
10:00 +30°C° 0 mm 3 m/s 748 mmHg 59%
11:00 +33°C° 0 mm 3 m/s 748 mmHg 52%
12:00 +33°C° 0 mm 3 m/s 748 mmHg 50%
13:00 +34°C° 0 mm 3 m/s 748 mmHg 47%
14:00 +35°C° 0 mm 3 m/s 748 mmHg 45%
15:00 +34°C° 0.1 mm 3 m/s 748 mmHg 51%
16:00 +33°C° 0.1 mm 3 m/s 748 mmHg 57%
17:00 +32°C° 0.1 mm 4 m/s 748 mmHg 63%
18:00 +28°C° 1.7 mm 3 m/s 748 mmHg 72%
19:00 +26°C° 1.7 mm 3 m/s 748 mmHg 82%
20:00 +24°C° 1.7 mm 3 m/s 748 mmHg 91%
21:00 +22°C° 4.1 mm 3 m/s 748 mmHg 93%
22:00 +21°C° 4.1 mm 3 m/s 749 mmHg 95%
23:00 +21°C° 4.1 mm 2 m/s 749 mmHg 97%
Mostrar mais

Necessitamos do seu Consentimento

A Meteoprog e os seus Fornecedores de Serviços podem armazenar e aceder a dados pessoais como cookies, identificadores do dispositivo ou outras tecnologias semelhantes existentes no seu dispositivo e processar estes dados para personalizar conteúdos e anúncios, assim como funcionalidades nas redes sociais e análise de tráfego.

  • Armazenar e/ou aceder a informações no seu dispositivo

    Os cookies, identificadores do dispositivo ou outras informações podem ser armazenados ou acedidos no seu dispositivo, para os fins acima indicados.

  • Anúncios e conteúdos personalizados, medição de anúncios e conteúdos, dados sobre o público-alvo e desenvolvimento de produtos

    Os anúncios e os conteúdos podem ser personalizados com base num perfil. Podem ser adicionados dados adicionais para uma maior personalização dos anúncios e dos conteúdos. A eficácia dos anúncios e dos conteúdos pode ser medida. Podem ser obtidas informações sobre o público que visualizou os anúncios e os conteúdos. Estes dados podem ser usados para desenvolver ou melhorar sistemas, softwares ou a experiência do utilizador.

Ao clicar em "Eu concordo”, permitirá o uso de cookies, identificadores do dispositivo e web beacons mencionados ou outras tecnologias semelhantes. As configurações do navegador do seu dispositivo podem ser alteradas.

Para certos fins, podem ser invocados interesses legítimos ao invés de consentimento. Pode ler mais informação sobre este assunto na nossa Política de Privacidade e Cookies.